Regional Weather Roundup
Issued by NWS Northern Indiana

Home | Current Version | Previous Version | Graphics & Text | Print | Product List | Glossary On
Versions: 1 2 3 4 5 6 7 8 9 10 11 12 13 14 15 16 17 18 19 20 21 22 23 24 25 26 27 28 29 30 31 32 33 34 35 36 37 38 39 40 41 42 43 44 45 46 47 48 49 50
000
ASUS43 KIWX 300710
RWRIWX

KIWX WEATHER ROUNDUP
NATIONAL WEATHER SERVICE NORTHERN INDIANA
300 AM EDT MON MAY 30 2016

NOTE: "FAIR" INDICATES FEW OR NO CLOUDS BELOW 12,000 FEET WITH NO
SIGNIFICANT WEATHER AND/OR OBSTRUCTIONS TO VISIBILITY.

* THESE STATIONS ARE NOT UNDER NWS QUALITY CONTROL. THEY ALSO MAY NOT
  REPORT WEATHER SUCH AS PRECIPITATION OR FOG.

INZ001>027-300800-
NORTHERN INDIANA

CITY           SKY/WX    TMP DP  RH WIND       PRES   REMARKS
GARY*          CLEAR     61  61 100 W3        30.02S
VALPARAISO     CLEAR     64  56  75 W5        30.02S
MICHIGAN CITY* CLEAR     59  59 100 CALM      30.02R
LAPORTE*       CLEAR     66  59  80 W3        30.02S
KNOX*          CLEAR     61  52  72 CALM      30.01F
SOUTH BEND     CLEAR     61  56  83 SW5       30.02S
GOSHEN         PTCLDY    58  54  86 S3        30.01S
MONTICELLO*    CLOUDY    64  53  68 CALM      30.02S
LOGANSPORT*    PTCLDY    63  54  72 W3        30.03S
ROCHESTER*     CLEAR     63  59  88 CALM      30.02F
WARSAW*        CLEAR     59  57  94 CALM      30.02S
ANGOLA*          N/A     57  57 100 CALM      30.01S
FORT WAYNE     PTCLDY    63  56  78 SW3       30.02S
HUNTINGTON*    CLEAR    N/A N/A N/A CALM      30.02S
PERU/GRISSOM   CLEAR     66  55  68 W2        30.02S
MARION*        PTCLDY    63  56  78 CALM      30.03S

$$
INZ028>050-300800-
CENTRAL INDIANA

CITY           SKY/WX    TMP DP  RH WIND       PRES   REMARKS
LAFAYETTE      CLEAR     61  58  90 CALM      30.02F
KOKOMO*        CLOUDY    64  54  68 CALM      30.03S
MUNCIE*        PTCLDY    66  55  67 CALM      30.03S
INDIANAPOLIS   PTCLDY    66  56  70 W6        30.02S

$$
MIZ043>046-050>051-056>058-064>065-071>073-077>080-300800-
SOUTHWEST LOWER MICHIGAN

CITY           SKY/WX    TMP DP  RH WIND       PRES   REMARKS
BATTLE CREEK   CLEAR     61  56  83 W7        30.00S
BENTON HARBOR  PTCLDY    65  56  72 W7        29.99S
COLDWATER*     CLEAR     60  55  85 SW3       30.01R
HILLSDALE*     CLEAR     60  55  84 CALM      30.01S
HOLLAND        CLEAR     63  56  78 W6        29.98S
GRAND RAPIDS   CLEAR     63  56  78 W6        29.98S
KALAMAZOO      CLEAR     61  55  81 SW6       30.00R
STURGIS*       CLEAR     61  56  83 CALM      30.00S
THREE RIVERS*  FAIR      61  57  85 CALM      30.01S

$$
OHZ001>008-015>018-024>025-300800-
NORTHWEST OHIO

CITY           SKY/WX    TMP DP  RH WIND       PRES   REMARKS
WAUSEON*         N/A     61  61 100 W3        30.00S
DEFIANCE       CLEAR     61  55  81 SW3       30.01S
FINDLAY        CLEAR     65  55  70 CALM      30.00F
TOLEDO EXPRESS CLEAR     60  56  86 CALM      29.99F
TOLEDO METCALF CLEAR     61  54  77 S5        29.99F
LIMA           CLEAR     64  58  80 CALM      30.02S

$$
AND FOR LAKE MICHIGAN COASTAL AND OPEN LAKE BUOY OBSERVATIONS

STATION/POSITION TEMP    WIND        PRES    VSBY  WAVE
                 AIR SEA DIR/SP/G                  HT/PER
                 (F)     (DEG/KT/KT) (MB)    (MI)  (FT/S)
CALUMET HARBOR    71     230/  4/  5 1015.5F
MICHIGAN CITY     69     190/  7/  7   N/A
BURNS HARBOR      70     220/  6/  8 1016.3F
SAINT JOSEPH      67     200/  7/ 11 1016.6S
SOUTH LAKE BUOY   56 51  230/  8/  8 1014.8S         0
4 MI NW BRIDGMAN  63 62  200/  6/  8   N/A           1
MICHIGAN CITY     62 59  210/  6/  6   N/A           1

$$
&&



USA.gov is the U.S. government's official web portal to all federal, state and local government web resources and services.